Regional Weather Roundup
Issued by NWS Kansas City/Pleasant Hill, MO

Home | Current Version | Previous Version | Graphics & Text | Print | Product List | Glossary Off
Versions: 1 2 3 4 5 6 7 8 9 10 11 12 13 14 15 16 17 18 19 20 21 22 23 24 25 26

000
ASUS43 KEAX 131110
RWREAX

WEATHER ROUNDUP FOR EASTERN KANSAS AND NORTHWEST MISSOURI
NATIONAL WEATHER SERVICE KANSAS CITY/PLEASANT HILL MO
500 AM CST WED DEC 13 2017

KSZ040-057-103>105-MOZ028-029-037-043-131200-
...KANSAS CITY METROPOLITAN AREA...

CITY           SKY/WX    TMP DP  RH WIND       PRES   REMARKS
K.C. INTL      CLEAR     37  27  67 SW16      29.68F WCI  28
K.C. DOWNTOWN  CLEAR     40  26  57 SW8       29.70F WCI  34
LEES SUMMIT    CLEAR     36  28  73 SW17      29.71F WCI  26
OLATHE - IXD   CLEAR     36  27  69 S13       29.73F WCI  27
OLATHE - OJC   CLEAR     34  27  75 S10       29.72F WCI  26
LAWRENCE       CLEAR     37  28  70 SW7       29.72F WCI  32

$$

MOZ001>008-011>017-020>025-030>033-038>040-044>046-053-054-131200-
...NORTHERN AND CENTRAL MISSOURI...

CITY           SKY/WX    TMP DP  RH WIND       PRES   REMARKS
ST. JOSEPH     CLEAR     33  26  75 S6        29.69S WCI  28
MOSBY          SUNNY     36  28  75 SW8       29.70F WCI  29
WARRENSBURG    CLEAR     32  25  74 S13G18    29.74F WCI  22
WHITEMAN AFB   CLEAR     34  23  64 SW20G26   29.69F WCI  23
CLINTON        CLEAR     34  25  69 SW8       29.78F WCI  27
SEDALIA        CLEAR     36  26  67 SW20G26   29.75F WCI  25
WARSAW         NOT AVBL
CHILLICOTHE      N/A     31  25  78 S8        29.66F WCI  23
KIRKSVILLE     CLEAR     31  29  92 SW15      29.64F WCI  20

$$

MOZ041-047>049-056>058-063>065-088>090-097-131200-
...EASTERN AND SOUTHERN MISSOURI...

CITY           SKY/WX    TMP DP  RH WIND       PRES   REMARKS
ST. LOUIS INTL CLEAR     31  16  54 S10       29.83F WCI  22
SPIRIT OF STL  CLEAR     32  16  51 S8        29.83F WCI  25
COLUMBIA       CLEAR     31  19  61 S14       29.75F WCI  21
JEFFERSON CITY CLEAR     33  18  53 VRB3      29.79F
ROLLA          CLEAR     31  18  58 S16       29.82F WCI  20
OSAGE BEACH    CLEAR     28  19  69 S7        29.82F WCI  21
SPRINGFIELD    CLEAR     31  20  63 S16       29.85F WCI  20
BRANSON        CLEAR     37  23  56 CALM      29.92F
JOPLIN         CLEAR     41  26  55 S20       29.86F WCI  32
WEST PLAINS    CLOUDY    31  13  47 SW9       29.93F WCI  23

$$

IAZ060-094-KSZ022-034>040-054-083-096-NEZ052-066-093-131200-
...KANSAS...SOUTHEAST NEBRASKA AND IOWA...

CITY           SKY/WX    TMP DP  RH WIND       PRES   REMARKS
TOPEKA         CLEAR     38  27  64 SW7       29.73F WCI  33
MANHATTAN      CLEAR     33  22  63 NE5       29.77R WCI  29
EMPORIA        CLEAR     38  24  57 SW9       29.76F WCI  31
CHANUTE        CLEAR     36  27  69 S13       29.82F WCI  27
WICHITA        CLOUDY    29  23  78 S7        29.82F WCI  22
OMAHA          PTCLDY    44  22  41 NW14G21   29.62F
LINCOLN        CLEAR     49  21  33 NW17      29.70S
FALLS CITY     CLEAR     39  22  50 W13       29.67F WCI  31
LAMONI         CLOUDY    31  24  75 SW14      29.59F WCI  21
DES MOINES     CLOUDY    36  24  62 SW15G22   29.52F WCI  27

$$





USA.gov is the U.S. government's official web portal to all federal, state and local government web resources and services.